Location: Ahrdt
(50.6944°N, 8.4753°E)
Time: 02:13:56
(UTC+00:00)

Daily predictions for brighter satellites

Satellite Brightness Start Highest point End
(mag) Time Altitude Azimuth Time Altitude Azimuth Time Altitude Azimuth
CENTAUR R/B 4.3 02:14:21 36° ESE 02:14:21 36° ESE 02:19:11 10° ESE
Lacrosse 5 4.5 02:52:47 15° ESE 02:52:47 15° ESE 02:54:48 10° E
Cosmos 2263 Rocket 3.7 03:01:26 33° E 03:01:26 33° E 03:05:27 10° NE
SJ 16-02 4.0 03:08:47 18° E 03:08:47 18° E 03:11:14 10° NE
CZ-4C R/B 4.5 03:25:49 10° SSE 03:29:15 19° ESE 03:33:06 10° ENE
BREEZE-M DEB (TANK) 4.4 03:30:34 78° SSW 03:30:34 78° SSW 03:35:02 10° ESE
ATLAS 3B R/B 3.0 03:30:35 55° N 03:31:26 59° NE 03:38:27 10° ESE
Lacrosse 4 Rocket 3.9 03:38:11 17° SE 03:38:11 17° SE 03:39:12 10° SE
Cosmos 923 Rocket 4.2 03:53:37 69° ESE 03:53:37 69° ESE 03:58:28 10° SSE
ALOS 2.9 03:48:39 10° NNE 03:53:15 54° E 03:53:17 54° ESE
Cosmos 2227 Rocket 4.0 03:57:13 18° N 03:57:13 18° N 03:59:13 10° NNE
Cosmos 2344 4.3 03:53:01 36° NW 03:57:42 77° NE 04:10:11 10° SE
NOSS 3-2 (C) 4.4 04:00:07 46° SW 04:00:07 46° SW 04:07:20 10° S
CENTAUR R/B 3.4 04:01:36 48° SW 04:01:36 48° SW 04:09:37 10° S
Cosmos 2227 4.1 04:01:36 82° N 04:01:36 82° N 04:07:01 10° NNE
USA 305 4.1 04:02:46 39° NE 04:02:46 39° NE 04:05:44 10° ENE
NOSS 3-4 (A) 3.6 04:00:50 46° S 04:02:33 67° SE 04:08:52 10° NE
NOSS 3-4 (C) 3.6 04:00:54 45° S 04:02:40 67° SE 04:09:00 10° NE
ARGOS Delta rocket 4.0 03:59:08 10° NNE 04:04:20 78° E 04:04:43 73° SSE
Meteor 1-31 Rocket 4.1 04:02:13 10° NNE 04:05:08 38° ENE 04:05:08 38° ENE
Cosmos 158 Rocket 4.0 04:10:38 65° SSE 04:10:38 65° SSE 04:14:53 10° SSE
USA 306 3.8 04:10:52 44° NE 04:10:52 44° NE 04:14:10 10° ENE
Cosmos 1515 Rocket 4.4 04:09:36 30° NNE 04:11:28 50° ENE 04:15:48 10° SSE
SL-4 R/B 2.8 04:15:03 45° ENE 04:15:03 45° ENE 04:17:44 10° E
Cosmos 1782 3.3 04:16:34 57° ESE 04:16:34 57° ESE 04:20:02 10° SSE
SKYMED 2 3.8 04:14:09 10° SSE 04:18:27 66° ENE 04:19:24 50° NNE
Cosmos 1844 Rocket 4.4 04:13:46 10° SSE 04:18:45 33° ESE 04:23:47 10° NE
Cosmos 1680 Rocket 3.4 04:20:02 58° NNW 04:21:09 88° WSW 04:26:28 10° SSE
ATLAS 2AS CENTAUR R/B 3.2 04:15:31 15° SSW 04:22:16 75° SE 04:30:04 10° NE
FALCON 9 DEB 4.4 04:26:37 38° NE 04:26:37 38° NE 04:29:02 10° ENE
Cosmos 2297 Rocket 4.1 04:30:30 16° NNW 04:30:30 16° NNW 04:32:46 10° N
ATLAS 5 CENTAUR R/B 2.9 04:31:19 34° NNE 04:31:19 34° NNE 04:32:55 10° NE
ATLAS CENTAUR R/B 1.2 04:32:06 74° ESE 04:32:06 74° ESE 04:35:44 10° SE
RESURS DK-1 3.7 04:28:52 10° S 04:32:45 39° ESE 04:36:39 10° NE
ADEOS 3.4 04:27:50 10° NNE 04:33:06 81° WNW 04:38:19 10° SSW
CRYOSAT 2 4.2 04:28:43 10° S 04:33:35 88° W 04:38:29 10° N
Lacrosse 5 2.1 04:32:03 36° SSW 04:34:02 65° SE 04:39:04 10° ENE
Cosmos 1328 Rocket 4.0 04:35:39 46° SSW 04:35:39 46° SSW 04:38:56 10° S
ERBS 3.8 04:38:12 28° NNE 04:38:12 28° NNE 04:40:09 10° NE
Cosmos 2112 Rocket 3.9 04:38:53 39° NW 04:40:54 72° WSW 04:46:13 10° SSE
Gbstr 26 Del rocket 3.4 04:43:34 39° SSW 04:43:34 39° SSW 04:46:52 10° SE
Cosmos 2263 Rocket 2.4 04:43:11 44° W 04:44:06 48° NW 04:49:39 10° NNE
SJ 16-02 1.3 04:45:52 56° W 04:46:22 61° WNW 04:50:47 10° NNE
Nadezhda 3 Rocket 4.5 04:42:18 10° N 04:48:35 62° ENE 04:54:45 10° SSE
Meteor 1-26 Rocket 4.4 04:48:59 25° NNW 04:52:06 49° W 04:57:29 10° SSW
Cosmos 1898 Rocket 3.7 04:48:37 10° SSW 04:53:54 75° ESE 04:59:16 10° NNE
CZ-2C R/B 4.2 04:51:36 10° SE 04:56:28 34° ENE 05:01:16 10° N
FALCON 9 DEB 3.7 04:56:35 38° SSW 04:57:21 48° SSE 05:00:29 10° ENE
Cosmos 1766 Rocket 4.1 04:58:03 39° NW 04:58:03 39° NW 05:01:42 10° N
FALCON 9 DEB 3.6 04:56:45 40° SSW 04:57:28 50° SSE 05:00:36 10° ENE
FENGYUN 3A 3.8 04:52:42 10° N 04:57:54 48° WNW 05:03:03 10° SW
Envisat 4.4 04:53:28 10° NNE 04:58:17 40° E 05:03:02 10° SSE
Cosmos 1743 Rocket 3.8 04:56:54 10° S 05:01:20 73° E 05:05:49 10° NNE
H-2A R/B 4.4 04:58:19 10° NE 05:01:44 29° E 05:05:07 10° SSE
Cosmos 2082 Rocket 4.0 04:58:22 10° NNW 05:03:04 25° NE 05:07:45 10° E
Cosmos 2181 Rocket 4.2 04:57:19 10° NNW 05:03:09 43° W 05:08:54 10° SSW
Cosmos 1408 Rocket 3.5 04:58:57 10° SSW 05:03:21 61° WNW 05:07:47 10° N
COSMO-SKYMED 1 2.9 05:02:26 10° S 05:06:34 43° W 05:07:59 32° NW
USA 307 3.2 05:05:08 37° NW 05:06:37 58° N 05:10:53 10° E
Cosmos 1709 Rocket 4.4 05:02:30 10° SW 05:08:23 38° WNW 05:14:19 10° N
Cosmos 1937 Rocket 3.6 05:05:51 10° SSW 05:10:59 76° ESE 05:16:12 10° NNE
Lacrosse 4 Rocket 3.5 05:14:32 13° SW 05:14:32 13° SW 05:15:37 10° SW
USA 308 3.2 05:11:14 33° NW 05:12:59 59° N 05:17:15 10° E
Cosmos 1833 Rocket 3.8 05:08:23 10° NNW 05:13:43 41° NE 05:19:00 10° ESE
Meteor 2-3 Rocket 4.1 05:10:10 10° SW 05:15:36 43° WNW 05:21:08 10° N
CZ-4B R/B 3.1 05:12:10 10° N 05:16:39 63° WNW 05:21:01 10° SSW
CZ-4C R/B 2.1 05:11:38 10° SW 05:16:44 87° NW 05:22:58 10° NE
MOS 1 Rocket 3.4 05:12:03 10° SSE 05:16:54 82° WSW 05:22:07 10° NNW
Cosmos 2154 Rocket 4.1 05:11:01 10° S 05:17:14 79° E 05:23:33 10° NNE
Meteor 1-27 Rocket 4.1 05:11:57 10° N 05:17:43 70° ENE 05:23:33 10° SSE
Cosmos 1689 Rocket 3.8 05:17:01 10° SSW 05:18:12 19° SW 05:18:12 19° SW
Meteor 1-10 Rocket 4.1 05:14:12 10° NNW 05:19:45 76° W 05:25:20 10° S
FALCON 9 DEB 3.2 05:18:32 26° SW 05:20:09 66° SSE 05:23:23 10° ENE
Cosmos 1805 Rocket 4.2 05:16:10 10° S 05:20:32 59° E 05:24:57 10° NNE
ATLAS 3B R/B 3.1 05:17:52 22° WNW 05:22:03 45° WSW 05:28:47 10° S
COSMOS 2406 3.8 05:18:14 10° NNW 05:23:54 56° NE 05:29:34 10° SE
Aureole 2 Rocket 2.5 05:22:20 10° S 05:24:48 50° ESE 05:27:19 10° NNE
YAOGAN 6 2.9 05:23:55 10° NNE 05:27:26 64° ESE 05:30:53 10° S
Cosmos 1862 3.2 05:24:02 10° SSW 05:28:05 71° WNW 05:32:09 10° N
Genesis I 3.0 05:25:35 10° SW 05:29:25 81° NW 05:33:18 10° NE
deb Chang Zheng 4 4.2 05:26:27 10° N 05:30:19 32° WNW 05:34:11 10° SW
ALOS 3.3 05:26:40 10° N 05:30:21 23° WNW 05:31:45 20° W
Cosmos 858 Rocket 4.4 05:30:06 10° SSW 05:35:19 73° WNW 05:40:36 10° NNE
PSLV R/B 3.6 05:32:20 10° NNE 05:36:15 81° WNW 05:40:03 10° SSW
Cosmos 2327 Rocket 4.4 05:30:35 10° SSW 05:36:40 76° W 05:42:48 10° N
Cosmos 990 Rocket 4.2 05:31:39 10° SW 05:36:43 48° WNW 05:41:51 10° NNE
Cosmos 2074 Rocket 4.1 05:32:08 10° SSW 05:38:10 52° WNW 05:44:15 10° N
ASTRO F (AKARI) 4.2 05:35:12 10° N 05:38:14 55° WNW 05:41:19 10° SSW
Meteor 1-31 Rocket 4.0 05:37:11 10° NNW 05:40:04 20° WNW 05:40:29 20° WNW
Cosmos 2227 Rocket 4.2 05:39:27 10° NNW 05:40:44 11° NNW 05:42:00 10° N
USA 305 3.0 05:38:55 20° WNW 05:41:51 70° NNE 05:46:09 10° E
BREEZE M DEB (TANK) 4.0 05:36:36 10° SW 05:42:34 33° SSE 05:45:06 10° E
Cosmos 405 Rocket 2.7 05:40:19 10° SSW 05:43:55 52° WNW 05:47:38 10° N
SL-24 DEB 4.2 05:39:22 10° S 05:44:07 73° W 05:48:56 10° N
Cosmos 1812 3.4 05:42:51 11° NNW 05:46:10 34° W 05:49:38 10° SSW
EO 1 Delta rocket 4.4 05:43:20 10° SSW 05:47:56 38° W 05:52:16 10° NNW
Cosmos 2228 Rocket 3.6 05:44:34 10° NNW 05:48:40 38° W 05:52:43 10° SSW
Cosmos 1295 Rocket 4.4 05:43:33 10° SSW 05:49:37 76° W 05:55:45 10° N
USA 306 3.0 05:47:01 17° WNW 05:50:17 74° NNE 05:54:36 10° ESE
SL-4 R/B 1.7 05:50:37 16° WNW 05:53:38 85° N 05:57:15 10° E
NOSS 3-4 (A) 4.0 05:48:19 11° W 05:53:51 41° NNW 06:00:04 10° NE
NOSS 3-4 (C) 4.0 05:48:23 11° W 05:53:58 41° NNW 06:00:12 10° NE
Cosmos 1633 Rocket 4.0 05:49:48 10° S 05:54:06 53° E 05:58:25 10° NNE
Cosmos 2184 Rocket 4.4 05:49:51 10° SW 05:55:49 42° WNW 06:01:53 10° N
USA-17 4.3 05:52:59 10° SW 05:56:24 59° NW 05:59:26 10° NE
USA 234 4.0 05:50:45 10° ENE 05:57:11 57° SE 06:03:35 10° SW
Cosmos 1356 3.6 05:56:10 10° S 05:59:33 77° E 06:02:59 10° NNE
FALCON 9 DEB 2.9 05:56:58 11° WSW 05:59:59 75° NNW 06:03:13 10° ENE
Cosmos 1844 Rocket 2.9 05:56:57 10° SW 06:02:28 51° NW 06:08:01 10° NNE
FALCON 9 DEB 3.1 05:59:52 14° WNW 06:02:47 86° NNE 06:06:15 10° ESE
Cosmos 1707 Rocket 3.5 06:01:30 10° NNW 06:05:47 62° W 06:10:03 10° S
MOS 1-B 4.3 06:01:35 10° NNE 06:07:25 74° WNW 06:13:12 10° SSW
ATLAS CENTAUR R/B 3.2 06:08:18 10° W 06:10:13 14° WSW 06:12:12 10° SW
COSMOS 2455 2.9 06:04:31 10° SW 06:10:34 88° NW 06:16:40 10° NE
NOAA 6 4.1 06:05:31 10° N 06:10:35 60° WNW 06:15:36 10° SSW
RESURS DK-1 3.2 06:07:11 10° WSW 06:10:53 30° NW 06:14:36 10° NNE
H-2A R/B 3.7 06:09:50 10° N 06:13:10 27° WNW 06:16:27 10° WSW
OPS 8737 4.5 06:10:36 10° NW 06:13:41 71° SW 06:17:40 10° SE
ERBS 3.6 06:11:05 11° WNW 06:13:47 26° N 06:16:40 10° ENE
ATLAS 2AS CENTAUR R/B 3.4 06:06:15 10° W 06:13:52 46° NNW 06:21:14 10° NE
USA 290 3.7 06:11:47 10° N 06:14:52 35° ENE 06:17:55 10° SE
CZ-4B DEB 4.3 06:10:21 10° N 06:15:42 56° WNW 06:21:01 10° SW
Cosmos 1437 Rocket 3.8 06:13:08 10° NW 06:16:18 25° W 06:19:26 10° SSW
Cosmos 1844 3.9 06:10:59 10° SW 06:16:23 49° NW 06:21:50 10° NNE
Lacrosse 5 2.2 06:12:15 10° W 06:17:12 50° NNW 06:22:09 10° ENE
Okean O Rocket 1.6 06:14:56 10° NNE 06:19:23 76° WNW 06:23:50 10° SSW
Cosmos 372 Rocket 4.0 06:14:42 10° SW 06:19:44 59° WNW 06:24:48 10° NNE
Cosmos 1242 Rocket 2.6 06:17:49 10° NNW 06:21:29 89° WSW 06:25:09 10° S
PAYLOAD B 4.3 06:16:42 10° N 06:22:09 60° WNW 06:27:32 10° SSW
Geosat 4.1 06:17:29 10° SSE 06:22:29 66° WSW 06:27:30 10° NW
SMAP 3.1 06:18:26 10° N 06:23:04 64° WNW 06:27:40 10° SSW
USA 81 4.1 06:20:26 10° SSW 06:25:38 61° W 06:30:53 10° N
SJ 16-02 3.3 06:24:20 10° WNW 06:25:56 12° NW 06:27:31 10° NNW
Cosmos 2263 Rocket 3.8 06:26:10 10° WNW 06:29:31 16° NNW 06:32:53 10° N
